Torna al catalogo

STARLINK-11175

AttivoComunicazioniVLEO
NORAD 60191·PAYLOAD·🇺🇸 United States

Lanciato Jul 3, 2024 da Cape Canaveral Space Force Station

Loading…

Prossimi Passaggi (prossime 24 ore)

TLE

AggiornatoSource: CelesTrak SupGP

Epoca: Sep 14, 2026, 22:21 UTC

1 60191C 24124J   26257.93173611 -.00031067  00000+0 -25591-3 0  2573
2 60191  53.1566 308.5578 0001101  85.0956 287.0336 15.69725370    12

Traccia STARLINK-11175 in tempo reale con AllMySat

Download on the App Store